Time,TemperatureF,DewpointF,PressureIn,WindDirection,WindDirectionDegrees,WindSpeedMPH,WindSpeedGustMPH,Humidity,HourlyPrecipIn,Conditions,Clouds,dailyrainin,SolarRadiationWatts/m^2,SoftwareType,DateUTC
2013-02-05 00:01:00,43.0,21.0,-100.00,SE,130,3.0,5.0,41,0.00,,,-99.99,0.000000,,2013-02-05 08:01:00,
2013-02-05 00:02:00,42.0,23.0,-100.00,SE,131,5.0,8.0,46,0.00,,,0.00,0.000000,,2013-02-05 08:02:00,
2013-02-05 00:22:00,42.0,23.0,-100.00,SE,131,5.0,8.0,46,0.00,,,0.00,0.000000,,2013-02-05 08:22:00,
2013-02-05 00:32:00,42.0,23.0,-100.00,SE,131,5.0,8.0,46,0.00,,,0.00,0.000000,,2013-02-05 08:32:00,
2013-02-05 00:42:00,42.0,23.0,-100.00,SE,131,5.0,8.0,46,0.00,,,0.00,0.000000,,2013-02-05 08:42:00,
2013-02-05 00:52:00,42.0,23.0,-100.00,SE,131,5.0,8.0,46,0.00,,,0.00,0.000000,,2013-02-05 08:52:00,
2013-02-05 01:22:00,45.0,24.0,-100.00,SSE,160,4.0,10.0,43,0.00,,,0.00,0.000000,,2013-02-05 09:22:00,
2013-02-05 01:32:00,45.0,24.0,-100.00,SSE,160,4.0,10.0,43,0.00,,,0.00,0.000000,,2013-02-05 09:32:00,
2013-02-05 01:42:00,45.0,24.0,-100.00,SSE,160,4.0,10.0,43,0.00,,,0.00,0.000000,,2013-02-05 09:42:00,
2013-02-05 01:52:00,45.0,24.0,-100.00,SSE,160,4.0,10.0,43,0.00,,,0.00,0.000000,,2013-02-05 09:52:00,
2013-02-05 02:01:00,45.0,24.0,-100.00,SSE,160,4.0,10.0,43,0.00,,,0.00,0.000000,,2013-02-05 10:01:00,
2013-02-05 02:32:00,42.0,26.0,-100.00,ESE,119,3.0,6.0,52,0.00,,,0.00,0.000000,,2013-02-05 10:32:00,
2013-02-05 02:42:00,42.0,26.0,-100.00,ESE,119,3.0,6.0,52,0.00,,,0.00,0.000000,,2013-02-05 10:42:00,
2013-02-05 02:52:00,42.0,26.0,-100.00,ESE,119,3.0,6.0,52,0.00,,,0.00,0.000000,,2013-02-05 10:52:00,
2013-02-05 03:01:00,42.0,26.0,-100.00,ESE,119,3.0,6.0,52,0.00,,,0.00,0.000000,,2013-02-05 11:01:00,
2013-02-05 03:32:00,42.0,26.0,-100.00,SE,127,2.0,5.0,52,0.00,,,0.00,0.000000,,2013-02-05 11:32:00,
2013-02-05 03:42:00,42.0,26.0,-100.00,SE,127,2.0,5.0,52,0.00,,,0.00,0.000000,,2013-02-05 11:42:00,
2013-02-05 03:52:00,42.0,26.0,-100.00,SE,127,2.0,5.0,52,0.00,,,0.00,0.000000,,2013-02-05 11:52:00,
2013-02-05 04:01:00,42.0,26.0,-100.00,SE,127,2.0,5.0,52,0.00,,,0.00,0.000000,,2013-02-05 12:01:00,
2013-02-05 04:32:00,41.0,24.0,-100.00,ENE,70,2.0,5.0,51,0.00,,,0.00,0.000000,,2013-02-05 12:32:00,
2013-02-05 04:42:00,41.0,24.0,-100.00,ENE,70,2.0,5.0,51,0.00,,,0.00,0.000000,,2013-02-05 12:42:00,
2013-02-05 04:52:00,41.0,24.0,-100.00,ENE,70,2.0,5.0,51,0.00,,,0.00,0.000000,,2013-02-05 12:52:00,
2013-02-05 05:01:00,41.0,24.0,-100.00,ENE,70,2.0,5.0,51,0.00,,,0.00,0.000000,,2013-02-05 13:01:00,
2013-02-05 05:32:00,41.0,22.0,-100.00,SE,135,3.0,5.0,46,0.00,,,0.00,0.000000,,2013-02-05 13:32:00,
2013-02-05 05:42:00,41.0,22.0,-100.00,SE,135,3.0,5.0,46,0.00,,,0.00,0.000000,,2013-02-05 13:42:00,
2013-02-05 05:52:00,41.0,22.0,-100.00,SE,135,3.0,5.0,46,0.00,,,0.00,0.000000,,2013-02-05 13:52:00,
2013-02-05 06:01:00,41.0,22.0,-100.00,SE,135,3.0,5.0,46,0.00,,,0.00,0.000000,,2013-02-05 14:01:00,
2013-02-05 06:32:00,40.0,22.0,-100.00,ESE,102,4.0,5.0,48,0.00,,,0.00,0.000000,,2013-02-05 14:32:00,
2013-02-05 06:42:00,40.0,22.0,-100.00,ESE,102,4.0,5.0,48,0.00,,,0.00,0.000000,,2013-02-05 14:42:00,
2013-02-05 06:52:00,40.0,22.0,-100.00,ESE,102,4.0,5.0,48,0.00,,,0.00,0.000000,,2013-02-05 14:52:00,
2013-02-05 07:01:00,40.0,22.0,-100.00,ESE,102,4.0,5.0,48,0.00,,,0.00,0.000000,,2013-02-05 15:01:00,
2013-02-05 07:32:00,44.0,21.0,-100.00,ESE,119,3.0,5.0,39,0.00,,,0.00,4.000000,,2013-02-05 15:32:00,
2013-02-05 07:42:00,44.0,21.0,-100.00,ESE,119,3.0,5.0,39,0.00,,,0.00,4.000000,,2013-02-05 15:42:00,
2013-02-05 07:52:00,44.0,21.0,-100.00,ESE,119,3.0,5.0,39,0.00,,,0.00,4.000000,,2013-02-05 15:52:00,
2013-02-05 08:01:00,44.0,21.0,-100.00,ESE,119,3.0,5.0,39,0.00,,,0.00,4.000000,,2013-02-05 16:01:00,
2013-02-05 08:32:00,52.0,16.0,-100.00,South,173,3.0,5.0,24,0.00,,,-99.99,69.000000,,2013-02-05 16:32:00,
2013-02-05 08:42:00,52.0,16.0,-100.00,South,173,3.0,5.0,24,0.00,,,-99.99,69.000000,,2013-02-05 16:42:00,
2013-02-05 08:52:00,52.0,16.0,-100.00,South,173,3.0,5.0,24,0.00,,,-99.99,69.000000,,2013-02-05 16:52:00,
2013-02-05 09:01:00,52.0,16.0,-100.00,South,173,3.0,5.0,24,0.00,,,-99.99,69.000000,,2013-02-05 17:01:00,
2013-02-05 09:32:00,55.0,22.0,-100.00,SSW,195,4.0,9.0,27,0.00,,,-99.99,359.000000,,2013-02-05 17:32:00,
2013-02-05 09:42:00,55.0,22.0,-100.00,SSW,195,4.0,9.0,27,0.00,,,-99.99,359.000000,,2013-02-05 17:42:00,
2013-02-05 09:52:00,55.0,22.0,-100.00,SSW,195,4.0,9.0,27,0.00,,,-99.99,359.000000,,2013-02-05 17:52:00,
2013-02-05 10:01:00,55.0,22.0,-100.00,SSW,195,4.0,9.0,27,0.00,,,-99.99,359.000000,,2013-02-05 18:01:00,
2013-02-05 10:32:00,58.0,27.0,-100.00,SSE,148,7.0,14.0,30,0.00,,,0.00,573.000000,,2013-02-05 18:32:00,
2013-02-05 10:42:00,58.0,27.0,-100.00,SSE,148,7.0,14.0,30,0.00,,,0.00,573.000000,,2013-02-05 18:42:00,
2013-02-05 10:52:00,58.0,27.0,-100.00,SSE,148,7.0,14.0,30,0.00,,,0.00,573.000000,,2013-02-05 18:52:00,
2013-02-05 11:01:00,58.0,27.0,-100.00,SSE,148,7.0,14.0,30,0.00,,,0.00,573.000000,,2013-02-05 19:01:00,
2013-02-05 11:32:00,60.0,25.0,-100.00,SE,141,9.0,15.0,26,0.00,,,0.00,737.000000,,2013-02-05 19:32:00,
2013-02-05 11:42:00,60.0,25.0,-100.00,SE,141,9.0,15.0,26,0.00,,,0.00,737.000000,,2013-02-05 19:42:00,
2013-02-05 11:52:00,60.0,25.0,-100.00,SE,141,9.0,15.0,26,0.00,,,0.00,737.000000,,2013-02-05 19:52:00,
2013-02-05 12:01:00,60.0,25.0,-100.00,SE,141,9.0,15.0,26,0.00,,,0.00,737.000000,,2013-02-05 20:01:00,
2013-02-05 12:32:00,59.0,24.0,-100.00,SE,132,10.0,17.0,26,0.00,,,0.00,831.000000,,2013-02-05 20:32:00,
2013-02-05 12:42:00,59.0,24.0,-100.00,SE,132,10.0,17.0,26,0.00,,,0.00,831.000000,,2013-02-05 20:42:00,
2013-02-05 12:52:00,59.0,24.0,-100.00,SE,132,10.0,17.0,26,0.00,,,0.00,831.000000,,2013-02-05 20:52:00,
2013-02-05 13:01:00,59.0,24.0,-100.00,SE,132,10.0,17.0,26,0.00,,,0.00,831.000000,,2013-02-05 21:01:00,
2013-02-05 13:22:00,58.0,30.0,-100.00,SSE,155,11.0,19.0,34,0.00,,,0.00,847.000000,,2013-02-05 21:22:00,
2013-02-05 13:32:00,58.0,30.0,-100.00,SSE,155,11.0,19.0,34,0.00,,,0.00,847.000000,,2013-02-05 21:32:00,
2013-02-05 13:42:00,58.0,30.0,-100.00,SSE,155,11.0,19.0,34,0.00,,,0.00,847.000000,,2013-02-05 21:42:00,
2013-02-05 13:52:00,58.0,30.0,-100.00,SSE,155,11.0,19.0,34,0.00,,,0.00,847.000000,,2013-02-05 21:52:00,
2013-02-05 14:01:00,58.0,30.0,-100.00,SSE,155,11.0,19.0,34,0.00,,,0.00,847.000000,,2013-02-05 22:01:00,
2013-02-05 14:22:00,59.0,28.0,-100.00,South,189,9.0,15.0,31,0.00,,,0.00,789.000000,,2013-02-05 22:22:00,
2013-02-05 14:32:00,59.0,28.0,-100.00,South,189,9.0,15.0,31,0.00,,,0.00,789.000000,,2013-02-05 22:32:00,
2013-02-05 14:42:00,59.0,28.0,-100.00,South,189,9.0,15.0,31,0.00,,,0.00,789.000000,,2013-02-05 22:42:00,
2013-02-05 14:52:00,59.0,28.0,-100.00,South,189,9.0,15.0,31,0.00,,,0.00,789.000000,,2013-02-05 22:52:00,
2013-02-05 15:01:00,59.0,28.0,-100.00,South,189,9.0,15.0,31,0.00,,,0.00,789.000000,,2013-02-05 23:01:00,
2013-02-05 15:22:00,60.0,28.0,-100.00,SSE,163,7.0,15.0,29,0.00,,,0.00,654.000000,,2013-02-05 23:22:00,
2013-02-05 15:32:00,60.0,28.0,-100.00,SSE,163,7.0,15.0,29,0.00,,,0.00,654.000000,,2013-02-05 23:32:00,
2013-02-05 15:42:00,60.0,28.0,-100.00,SSE,163,7.0,15.0,29,0.00,,,0.00,654.000000,,2013-02-05 23:42:00,
2013-02-05 15:52:00,60.0,28.0,-100.00,SSE,163,7.0,15.0,29,0.00,,,0.00,654.000000,,2013-02-05 23:52:00,
2013-02-05 16:01:00,60.0,28.0,-100.00,SSE,163,7.0,15.0,29,0.00,,,0.00,654.000000,,2013-02-06 00:01:00,
2013-02-05 16:32:00,54.0,34.0,-100.00,SE,141,8.0,15.0,46,0.00,,,0.00,324.000000,,2013-02-06 00:32:00,
2013-02-05 16:42:00,54.0,34.0,-100.00,SE,141,8.0,15.0,46,0.00,,,0.00,324.000000,,2013-02-06 00:42:00,
2013-02-05 16:52:00,54.0,34.0,-100.00,SE,141,8.0,15.0,46,0.00,,,0.00,324.000000,,2013-02-06 00:52:00,
2013-02-05 17:01:00,54.0,34.0,-100.00,SE,141,8.0,15.0,46,0.00,,,0.00,324.000000,,2013-02-06 01:01:00,
2013-02-05 17:32:00,51.0,29.0,-100.00,SE,140,10.0,14.0,43,0.00,,,0.00,118.000000,,2013-02-06 01:32:00,
2013-02-05 17:42:00,51.0,29.0,-100.00,SE,140,10.0,14.0,43,0.00,,,0.00,118.000000,,2013-02-06 01:42:00,
2013-02-05 17:52:00,51.0,29.0,-100.00,SE,140,10.0,14.0,43,0.00,,,0.00,118.000000,,2013-02-06 01:52:00,
2013-02-05 18:01:00,51.0,29.0,-100.00,SE,140,10.0,14.0,43,0.00,,,0.00,118.000000,,2013-02-06 02:01:00,
2013-02-05 18:02:00,47.0,27.0,-100.00,SE,145,9.0,16.0,46,0.00,,,0.00,9.000000,,2013-02-06 02:02:00,
2013-02-05 18:32:00,47.0,27.0,-100.00,SE,145,9.0,16.0,46,0.00,,,0.00,9.000000,,2013-02-06 02:32:00,
2013-02-05 18:42:00,47.0,27.0,-100.00,SE,145,9.0,16.0,46,0.00,,,0.00,9.000000,,2013-02-06 02:42:00,
2013-02-05 18:52:00,47.0,27.0,-100.00,SE,145,9.0,16.0,46,0.00,,,0.00,9.000000,,2013-02-06 02:52:00,
2013-02-05 19:32:00,47.0,26.0,-100.00,SE,143,7.0,13.0,44,0.00,,,0.00,0.000000,,2013-02-06 03:32:00,
2013-02-05 19:42:00,47.0,26.0,-100.00,SE,143,7.0,13.0,44,0.00,,,0.00,0.000000,,2013-02-06 03:42:00,
2013-02-05 19:52:00,47.0,26.0,-100.00,SE,143,7.0,13.0,44,0.00,,,0.00,0.000000,,2013-02-06 03:52:00,
2013-02-05 20:01:00,47.0,26.0,-100.00,SE,143,7.0,13.0,44,0.00,,,0.00,0.000000,,2013-02-06 04:01:00,
2013-02-05 20:32:00,47.0,27.0,-100.00,SE,144,8.0,14.0,46,0.00,,,0.00,0.000000,,2013-02-06 04:32:00,
2013-02-05 20:42:00,47.0,27.0,-100.00,SE,144,8.0,14.0,46,0.00,,,0.00,0.000000,,2013-02-06 04:42:00,
2013-02-05 20:52:00,47.0,27.0,-100.00,SE,144,8.0,14.0,46,0.00,,,0.00,0.000000,,2013-02-06 04:52:00,
2013-02-05 21:01:00,47.0,27.0,-100.00,SE,144,8.0,14.0,46,0.00,,,0.00,0.000000,,2013-02-06 05:01:00,
2013-02-05 21:32:00,45.0,27.0,-100.00,SSE,151,7.0,15.0,48,0.00,,,0.00,0.000000,,2013-02-06 05:32:00,
2013-02-05 21:42:00,45.0,27.0,-100.00,SSE,151,7.0,15.0,48,0.00,,,0.00,0.000000,,2013-02-06 05:42:00,
2013-02-05 21:53:00,45.0,27.0,-100.00,SSE,151,7.0,15.0,48,0.00,,,0.00,0.000000,,2013-02-06 05:53:00,
2013-02-05 22:01:00,45.0,27.0,-100.00,SSE,151,7.0,15.0,48,0.00,,,0.00,0.000000,,2013-02-06 06:01:00,
2013-02-05 22:22:00,45.0,27.0,-100.00,SE,138,7.0,14.0,49,0.00,,,0.00,0.000000,,2013-02-06 06:22:00,
2013-02-05 22:32:00,45.0,27.0,-100.00,SE,138,7.0,14.0,49,0.00,,,0.00,0.000000,,2013-02-06 06:32:00,
2013-02-05 22:42:00,45.0,27.0,-100.00,SE,138,7.0,14.0,49,0.00,,,0.00,0.000000,,2013-02-06 06:42:00,
2013-02-05 22:52:00,45.0,27.0,-100.00,SE,138,7.0,14.0,49,0.00,,,0.00,0.000000,,2013-02-06 06:52:00,
2013-02-05 23:01:00,45.0,27.0,-100.00,SE,138,7.0,14.0,49,0.00,,,0.00,0.000000,,2013-02-06 07:01:00,
2013-02-05 23:32:00,45.0,27.0,-100.00,SE,126,8.0,14.0,49,0.00,,,0.00,0.000000,,2013-02-06 07:32:00,
2013-02-05 23:42:00,45.0,27.0,-100.00,SE,126,8.0,14.0,49,0.00,,,0.00,0.000000,,2013-02-06 07:42:00,
2013-02-05 23:52:00,45.0,27.0,-100.00,SE,126,8.0,14.0,49,0.00,,,0.00,0.000000,,2013-02-06 07:52:00,